When you browse on this site, cookies collect data to enhance your experience and personalize the content and advertising you see.
Visit our Privacy Policy to learn more. By continuing to use the site, you agree to this use of cookies and data.
EN

Hourly Weather Guildford

Today, 10 August, Monday

Time Temperature Precipitation Wind Pressure Humidity
00:00 +21°C° 0 mm 3 mps 753 mmHg 81%
01:00 +21°C° 0 mm 3 mps 752 mmHg 82%
02:00 +20°C° 0 mm 3 mps 752 mmHg 83%
03:00 +20°C° 0 mm 3 mps 752 mmHg 84%
04:00 +20°C° 0 mm 3 mps 752 mmHg 84%
05:00 +20°C° 0 mm 3 mps 752 mmHg 84%
06:00 +21°C° 0 mm 3 mps 751 mmHg 84%
07:00 +23°C° 0 mm 4 mps 752 mmHg 78%
08:00 +25°C° 0 mm 4 mps 752 mmHg 72%
09:00 +27°C° 0 mm 5 mps 752 mmHg 66%
10:00 +29°C° 0 mm 5 mps 752 mmHg 60%
11:00 +30°C° 0 mm 5 mps 752 mmHg 54%
12:00 +33°C° 0 mm 4 mps 752 mmHg 48%
13:00 +33°C° 0 mm 4 mps 752 mmHg 46%
14:00 +33°C° 0 mm 4 mps 752 mmHg 44%
15:00 +33°C° 0 mm 4 mps 751 mmHg 42%
16:00 +31°C° 0 mm 3 mps 751 mmHg 45%
17:00 +30°C° 0 mm 3 mps 751 mmHg 48%
18:00 +29°C° 0 mm 2 mps 751 mmHg 52%
19:00 +27°C° 0 mm 2 mps 751 mmHg 57%
20:00 +25°C° 0 mm 1 mps 751 mmHg 62%
21:00 +23°C° 0 mm 1 mps 751 mmHg 67%
22:00 +23°C° 0 mm 1 mps 752 mmHg 69%
23:00 +23°C° 0 mm 1 mps 752 mmHg 71%

Tomorrow, 11 August, Tuesday

Time Temperature Precipitation Wind Pressure Humidity
00:00 +22°C° 0 mm 1 mps 752 mmHg 73%
01:00 +22°C° 0.2 mm 1 mps 752 mmHg 74%
02:00 +22°C° 0.2 mm 1 mps 752 mmHg 76%
03:00 +23°C° 0.2 mm 1 mps 752 mmHg 77%
04:00 +23°C° 0.3 mm 1 mps 752 mmHg 79%
05:00 +23°C° 0.3 mm 1 mps 752 mmHg 80%
06:00 +23°C° 0.3 mm 2 mps 752 mmHg 82%
07:00 +25°C° 0 mm 2 mps 752 mmHg 76%
08:00 +26°C° 0 mm 2 mps 752 mmHg 70%
09:00 +28°C° 0 mm 2 mps 752 mmHg 64%
10:00 +30°C° 0 mm 3 mps 752 mmHg 57%
11:00 +33°C° 0 mm 3 mps 752 mmHg 50%
12:00 +35°C° 0 mm 4 mps 753 mmHg 42%
13:00 +35°C° 0 mm 4 mps 752 mmHg 42%
14:00 +35°C° 0 mm 4 mps 752 mmHg 41%
15:00 +35°C° 0 mm 4 mps 752 mmHg 41%
16:00 +34°C° 0 mm 3 mps 752 mmHg 44%
17:00 +32°C° 0 mm 2 mps 751 mmHg 46%
18:00 +31°C° 0 mm 1 mps 751 mmHg 49%
19:00 +29°C° 0.1 mm 1 mps 751 mmHg 55%
20:00 +27°C° 0.1 mm 1 mps 752 mmHg 60%
21:00 +25°C° 0.1 mm 1 mps 752 mmHg 66%
22:00 +24°C° 0 mm 1 mps 752 mmHg 68%
23:00 +24°C° 0 mm 1 mps 752 mmHg 70%

Day after tomorrow, 12 August, Wednesday

Time Temperature Precipitation Wind Pressure Humidity
00:00 +21°C° 0 mm 0 mps 752 mmHg 71%
01:00 +23°C° 0.2 mm 1 mps 752 mmHg 73%
02:00 +23°C° 0.2 mm 1 mps 751 mmHg 74%
03:00 +23°C° 0.2 mm 1 mps 751 mmHg 76%
04:00 +23°C° 0 mm 1 mps 751 mmHg 76%
05:00 +23°C° 0 mm 1 mps 751 mmHg 77%
06:00 +23°C° 0 mm 1 mps 750 mmHg 77%
07:00 +25°C° 0 mm 2 mps 751 mmHg 70%
08:00 +27°C° 0 mm 2 mps 751 mmHg 63%
09:00 +29°C° 0 mm 2 mps 751 mmHg 57%
10:00 +31°C° 0 mm 3 mps 751 mmHg 51%
11:00 +34°C° 0 mm 3 mps 751 mmHg 46%
12:00 +35°C° 0 mm 4 mps 751 mmHg 40%
13:00 +35°C° 0 mm 4 mps 750 mmHg 40%
14:00 +35°C° 0 mm 4 mps 750 mmHg 39%
15:00 +35°C° 0 mm 4 mps 750 mmHg 39%
16:00 +33°C° 0.3 mm 5 mps 750 mmHg 46%
17:00 +30°C° 0.3 mm 5 mps 749 mmHg 54%
18:00 +28°C° 0.3 mm 5 mps 749 mmHg 62%
19:00 +26°C° 0.9 mm 4 mps 749 mmHg 70%
20:00 +25°C° 0.9 mm 3 mps 749 mmHg 78%
21:00 +23°C° 0.9 mm 2 mps 750 mmHg 86%
22:00 +23°C° 0.1 mm 1 mps 750 mmHg 86%
23:00 +23°C° 0.1 mm 1 mps 750 mmHg 86%

13 August, Thursday

Time Temperature Precipitation Wind Pressure Humidity
00:00 +23°C° 0.1 mm 1 mps 749 mmHg 85%
01:00 +22°C° 0 mm 1 mps 749 mmHg 87%
02:00 +22°C° 0 mm 1 mps 749 mmHg 88%
03:00 +22°C° 0 mm 1 mps 749 mmHg 89%
04:00 +22°C° 0 mm 1 mps 749 mmHg 89%
05:00 +22°C° 0 mm 1 mps 749 mmHg 89%
06:00 +20°C° 0 mm 0 mps 749 mmHg 88%
07:00 +24°C° 0 mm 1 mps 750 mmHg 82%
08:00 +25°C° 0 mm 1 mps 750 mmHg 75%
09:00 +27°C° 0 mm 2 mps 750 mmHg 68%
10:00 +28°C° 0.7 mm 2 mps 750 mmHg 65%
11:00 +29°C° 0.7 mm 2 mps 750 mmHg 61%
12:00 +29°C° 0.7 mm 2 mps 750 mmHg 58%
13:00 +29°C° 1 mm 3 mps 750 mmHg 61%
14:00 +28°C° 1 mm 4 mps 750 mmHg 65%
15:00 +27°C° 1 mm 4 mps 749 mmHg 68%
16:00 +26°C° 0.2 mm 4 mps 749 mmHg 68%
17:00 +26°C° 0.2 mm 4 mps 749 mmHg 67%
18:00 +25°C° 0.2 mm 4 mps 749 mmHg 67%
19:00 +24°C° 0 mm 3 mps 749 mmHg 72%
20:00 +21°C° 0 mm 2 mps 749 mmHg 78%
21:00 +21°C° 0 mm 1 mps 749 mmHg 83%
22:00 +21°C° 0 mm 1 mps 749 mmHg 85%
23:00 +20°C° 0 mm 1 mps 749 mmHg 86%

14 August, Friday

Time Temperature Precipitation Wind Pressure Humidity
00:00 +19°C° 0 mm 2 mps 749 mmHg 87%
01:00 +19°C° 0 mm 2 mps 749 mmHg 89%
02:00 +18°C° 0 mm 2 mps 749 mmHg 91%
03:00 +19°C° 0 mm 1 mps 749 mmHg 94%
04:00 +19°C° 0 mm 1 mps 749 mmHg 93%
05:00 +19°C° 0 mm 1 mps 749 mmHg 92%
06:00 +20°C° 0 mm 1 mps 749 mmHg 91%
07:00 +21°C° 0 mm 1 mps 749 mmHg 85%
08:00 +21°C° 0 mm 0 mps 750 mmHg 79%
09:00 +22°C° 0 mm 0 mps 750 mmHg 73%
10:00 +24°C° 0.6 mm 1 mps 750 mmHg 72%
11:00 +25°C° 0.6 mm 1 mps 750 mmHg 71%
12:00 +25°C° 0.6 mm 2 mps 750 mmHg 70%
13:00 +26°C° 0.9 mm 2 mps 750 mmHg 69%
14:00 +26°C° 0.9 mm 2 mps 750 mmHg 67%
15:00 +27°C° 0.9 mm 2 mps 750 mmHg 66%
16:00 +26°C° 0.7 mm 3 mps 750 mmHg 70%
17:00 +25°C° 0.7 mm 3 mps 750 mmHg 75%
18:00 +23°C° 0.7 mm 4 mps 751 mmHg 79%
19:00 +22°C° 0.2 mm 4 mps 751 mmHg 83%
20:00 +21°C° 0.2 mm 4 mps 751 mmHg 87%
21:00 +20°C° 0.2 mm 4 mps 751 mmHg 91%
22:00 +20°C° 0 mm 3 mps 751 mmHg 92%
23:00 +19°C° 0 mm 3 mps 751 mmHg 94%

15 August, Saturday

Time Temperature Precipitation Wind Pressure Humidity
00:00 +18°C° 0 mm 3 mps 751 mmHg 95%
01:00 +18°C° 0 mm 3 mps 751 mmHg 96%
02:00 +18°C° 0 mm 3 mps 751 mmHg 96%
03:00 +18°C° 0 mm 3 mps 751 mmHg 96%
04:00 +18°C° 0 mm 3 mps 752 mmHg 96%
05:00 +18°C° 0 mm 3 mps 752 mmHg 95%
06:00 +18°C° 0 mm 3 mps 752 mmHg 94%
07:00 +19°C° 0 mm 3 mps 752 mmHg 91%
08:00 +19°C° 0 mm 3 mps 752 mmHg 88%
09:00 +20°C° 0 mm 3 mps 753 mmHg 85%
10:00 +21°C° 0 mm 3 mps 753 mmHg 80%
11:00 +22°C° 0 mm 3 mps 753 mmHg 74%
12:00 +25°C° 0 mm 3 mps 753 mmHg 69%
13:00 +25°C° 0 mm 3 mps 753 mmHg 68%
14:00 +25°C° 0 mm 3 mps 753 mmHg 66%
15:00 +26°C° 0 mm 3 mps 752 mmHg 64%
16:00 +25°C° 0 mm 3 mps 752 mmHg 66%
17:00 +24°C° 0 mm 3 mps 752 mmHg 69%
18:00 +22°C° 0 mm 3 mps 752 mmHg 71%
19:00 +21°C° 0 mm 3 mps 752 mmHg 75%
20:00 +19°C° 0 mm 2 mps 752 mmHg 80%
21:00 +18°C° 0 mm 2 mps 752 mmHg 84%
22:00 +19°C° 0 mm 1 mps 752 mmHg 87%
23:00 +18°C° 0 mm 1 mps 752 mmHg 89%
Show more